Probability
23 26 26 26 32 26 23 26 23 19 19 23 16 23 10 13 16 10 10 23 26 23 23 19 13 13 16 13 13 10 6 6 6 10 6 6 6 3 3 3 3 3 3
19 29 35 32 32 29 32 29 35 39 29 29 19 26 19 19 13 16 19 10 19 23 29 19 19 16 16 13 10 6 6 6 6 10 6 6 6 0 6 3 3 3 0
19 29 35 29 35 29 32 35 32 39 35 35 35 42 29 26 29 29 19 19 23 16 19 13 16 13 13 10 10 10 6 6 6 6 6 6 6 3 3 3 3 3 0
13 26 39 42 39 39 35 35 29 35 42 42 42 45 35 29 29 26 23 23 26 23 23 13 16 13 13 13 13 13 13 6 6 6 6 6 6 6 6 3 3 3 3
13 23 32 45 45 39 39 42 32 45 42 35 29 32 29 29 29 23 23 29 29 29 29 19 16 16 16 13 13 10 10 10 10 6 6 6 6 6 6 6 3 3 3
19 23 29 32 48 48 42 52 48 48 48 42 39 35 26 26 32 32 29 29 32 35 32 26 23 23 16 13 13 13 10 10 10 10 10 6 6 6 6 6 3 3 3
23 26 29 32 48 52 55 58 55 48 48 42 42 35 32 29 29 32 32 32 35 32 29 32 26 23 19 16 16 13 13 13 16 13 13 13 10 6 6 6 6 3 0
26 19 29 35 39 58 55 58 58 48 45 42 45 42 35 39 29 32 35 35 39 35 29 29 26 23 19 23 23 26 23 19 13 13 10 13 10 10 10 10 6 3 0
26 26 26 29 39 45 58 55 55 45 45 48 48 48 48 52 42 39 35 35 39 39 32 26 23 23 19 16 19 26 23 23 16 16 13 13 10 10 6 6 6 3 3
23 29 23 23 26 32 39 48 52 42 55 52 52 55 55 52 52 39 39 35 35 35 29 26 26 26 16 19 19 19 19 23 16 16 16 13 16 13 10 6 3 0 0
29 29 23 23 19 32 39 42 39 39 52 48 52 55 55 55 48 48 42 35 29 32 32 23 19 26 19 19 19 16 16 16 13 16 13 10 13 13 10 6 0 0 0
29 32 23 26 29 29 39 42 39 45 48 48 48 52 52 55 48 45 42 39 35 29 39 19 19 23 19 23 16 16 16 13 10 10 10 13 16 16 13 6 3 3 0
23 19 23 26 32 35 32 42 39 45 45 52 48 48 52 45 42 42 42 45 39 35 32 29 23 23 26 26 19 13 10 10 13 13 13 13 16 16 13 10 10 3 3
23 19 23 29 29 35 35 32 42 42 48 48 52 55 45 45 42 45 42 39 42 39 29 32 32 19 19 19 23 23 19 19 16 13 13 16 16 13 10 10 10 6 3
26 29 23 32 35 35 35 39 39 45 52 52 48 48 45 42 39 42 39 35 32 42 32 32 32 29 26 23 23 19 19 19 16 19 19 19 13 16 10 10 10 10 6
32 29 29 32 32 35 35 45 45 45 48 48 45 48 45 42 39 39 32 26 26 29 29 29 32 32 32 26 16 16 23 19 19 19 19 13 13 10 6 6 6 3 6
29 26 26 26 19 29 35 42 48 52 45 45 42 42 39 39 32 32 29 29 29 29 26 26 32 32 32 26 13 10 16 19 19 19 13 13 13 10 10 6 3 3 3
26 29 26 26 29 29 32 39 42 48 52 48 42 42 39 35 32 32 26 26 26 26 26 26 26 26 32 23 13 3 6 16 16 16 13 10 10 10 10 10 10 6 6
23 26 26 26 23 26 26 32 39 48 48 48 42 42 35 32 32 32 26 26 26 26 23 23 23 23 23 19 10 6 10 13 13 10 13 13 10 10 3 6 6 10 10
26 23 23 23 23 29 29 32 39 45 45 45 42 35 35 29 29 29 26 26 26 26 23 19 19 19 16 13 10 6 6 13 6 6 6 6 3 3 0 3 3 6 6
23 16 19 19 19 23 23 26 26 29 29 32 29 29 26 23 29 29 26 23 23 19 16 13 13 13 13 13 10 0 3 6 3 3 3 3 0 0 0 0 3 3 3
16 16 13 16 19 19 23 23 26 26 23 26 23 23 23 26 26 23 19 19 19 10 10 10 10 3 3 3 0 0 0 0 3 6 3 3 0 0 0 0 0 0 0
13 13 10 10 13 16 19 19 23 23 23 26 23 19 16 16 16 16 16 6 6 3 3 3 3 3 3 0 0 0 0 0 0 0 0 0 0 0 0 0 0 0 0
6 10 10 10 13 16 16 19 19 23 19 16 16 13 10 10 6 6 6 6 3 3 3 3 3 3 0 0 0 0 0 0 0 0 0 0 0 0 0 0 0 0 0
6 10 10 10 16 16 16 23 19 19 19 13 13 10 10 10 6 6 6 6 3 3 3 3 3 3 3 0 0 0 0 0 0 0 0 0 0 0 0 0 0 0 0
6 6 10 16 13 10 13 19 16 16 16 10 10 10 10 6 6 6 3 0 0 0 0 0 0 3 3 0 0 0 0 0 0 0 0 0 0 0 3 3 0 0 0
Height
5913 5912 5911 5910 5909 5908 5907 5906 5905 5903 5902 5901 5900 5899 5898 5897 5896 5896 5895 5895 5894 5894 5894 5894 5893 5893 5893 5893 5893 5893 5893 5893 5893 5893 5893 5893 5892 5892 5891 5891 5891 5890 5890
5912 5912 5911 5910 5909 5908 5907 5906 5905 5904 5902 5901 5900 5900 5899 5898 5897 5896 5895 5894 5894 5893 5893 5893 5892 5892 5892 5892 5892 5892 5891 5891 5891 5891 5891 5890 5891 5889 5889 5889 5889 5888 5888
5912 5911 5911 5910 5909 5908 5907 5906 5905 5904 5903 5902 5901 5900 5899 5898 5897 5896 5895 5894 5893 5892 5892 5892 5891 5891 5890 5890 5890 5889 5889 5889 5889 5889 5889 5888 5888 5887 5887 5886 5886 5885 5885
5911 5910 5910 5909 5909 5908 5907 5906 5905 5904 5903 5901 5900 5899 5899 5898 5897 5896 5895 5894 5892 5892 5891 5890 5890 5889 5888 5888 5887 5887 5887 5887 5886 5886 5886 5886 5885 5885 5884 5884 5883 5883 5882
5909 5909 5908 5908 5907 5906 5906 5905 5904 5903 5902 5901 5900 5899 5898 5897 5896 5895 5894 5893 5891 5890 5889 5888 5888 5887 5886 5886 5885 5885 5885 5884 5884 5883 5883 5883 5882 5882 5881 5881 5881 5880 5879
5906 5906 5907 5906 5905 5905 5904 5903 5903 5902 5901 5900 5899 5898 5897 5896 5895 5894 5893 5891 5890 5889 5888 5887 5886 5885 5884 5883 5883 5882 5881 5881 5881 5880 5880 5879 5879 5879 5878 5878 5877 5877 5876
5902 5903 5904 5904 5903 5903 5902 5902 5901 5901 5900 5899 5898 5897 5896 5895 5894 5892 5891 5890 5888 5887 5885 5884 5883 5882 5881 5880 5880 5879 5878 5877 5877 5876 5876 5875 5875 5874 5874 5874 5873 5873 5873
5899 5900 5901 5901 5901 5901 5900 5900 5899 5899 5898 5897 5896 5895 5894 5893 5891 5890 5889 5887 5886 5885 5883 5882 5880 5879 5878 5877 5876 5875 5875 5874 5873 5872 5871 5871 5870 5870 5870 5870 5869 5869 5868
5895 5896 5897 5898 5898 5898 5898 5897 5897 5897 5895 5895 5894 5893 5892 5890 5889 5888 5886 5885 5883 5882 5880 5879 5878 5876 5875 5874 5873 5871 5871 5870 5869 5868 5867 5867 5866 5866 5865 5865 5864 5864 5864
5890 5891 5893 5893 5894 5894 5894 5894 5894 5893 5892 5891 5891 5890 5889 5887 5886 5885 5883 5881 5880 5878 5877 5876 5874 5873 5872 5870 5869 5868 5867 5866 5865 5864 5863 5863 5862 5861 5861 5860 5859 5859 5858
5886 5887 5888 5889 5890 5889 5890 5890 5890 5889 5888 5887 5887 5886 5885 5883 5882 5881 5879 5878 5876 5874 5873 5872 5870 5869 5867 5866 5865 5864 5863 5862 5861 5860 5859 5858 5857 5856 5856 5855 5854 5854 5853
5881 5882 5883 5883 5884 5885 5885 5885 5885 5884 5884 5883 5882 5881 5880 5879 5878 5877 5875 5874 5872 5870 5869 5867 5866 5865 5863 5862 5861 5860 5858 5857 5856 5855 5854 5853 5852 5851 5850 5850 5849 5848 5847
5875 5876 5877 5878 5879 5879 5879 5880 5880 5879 5879 5878 5877 5876 5875 5874 5873 5871 5870 5868 5867 5865 5864 5862 5861 5860 5858 5857 5856 5855 5854 5852 5851 5850 5849 5848 5847 5846 5844 5844 5843 5842 5841
5869 5870 5871 5872 5873 5873 5873 5874 5874 5874 5873 5872 5871 5870 5869 5868 5867 5865 5864 5863 5862 5860 5859 5857 5856 5854 5853 5852 5851 5850 5849 5847 5846 5845 5843 5842 5841 5839 5838 5837 5836 5835 5834
5863 5864 5865 5866 5867 5867 5867 5867 5868 5868 5867 5866 5865 5864 5863 5861 5860 5859 5858 5857 5855 5854 5852 5851 5850 5848 5847 5846 5845 5844 5842 5841 5840 5839 5837 5836 5834 5833 5831 5830 5829 5828 5827
5855 5856 5858 5859 5859 5860 5860 5860 5861 5861 5860 5859 5858 5857 5855 5854 5853 5852 5851 5850 5849 5847 5846 5844 5843 5842 5841 5840 5838 5837 5836 5834 5833 5831 5830 5828 5827 5825 5824 5823 5821 5820 5819
5848 5849 5851 5852 5852 5852 5853 5853 5853 5853 5852 5851 5850 5849 5848 5847 5846 5845 5844 5843 5841 5840 5839 5837 5836 5834 5833 5832 5831 5830 5828 5827 5825 5824 5822 5820 5819 5817 5816 5814 5813 5812 5811
5840 5841 5842 5843 5844 5844 5844 5844 5844 5844 5844 5843 5842 5841 5840 5839 5838 5837 5836 5835 5833 5832 5831 5829 5828 5827 5825 5824 5823 5821 5820 5819 5817 5815 5814 5812 5810 5809 5807 5806 5805 5804 5803
5832 5832 5833 5834 5835 5835 5835 5835 5835 5835 5835 5834 5833 5832 5831 5831 5830 5828 5827 5826 5825 5823 5822 5820 5819 5818 5817 5815 5814 5813 5811 5810 5808 5806 5805 5803 5802 5800 5798 5797 5796 5795 5794
5824 5825 5825 5825 5825 5826 5826 5826 5826 5826 5826 5825 5824 5823 5822 5821 5820 5819 5818 5817 5816 5814 5813 5811 5810 5809 5808 5807 5805 5803 5802 5800 5799 5797 5795 5794 5792 5790 5788 5787 5787 5786 5785
5815 5816 5816 5816 5817 5817 5817 5816 5817 5817 5816 5815 5814 5813 5812 5811 5810 5809 5808 5807 5806 5805 5803 5802 5801 5800 5798 5797 5795 5793 5792 5790 5788 5787 5785 5784 5782 5780 5779 5778 5778 5777 5776
5806 5806 5807 5807 5807 5807 5807 5807 5807 5807 5806 5805 5804 5803 5802 5801 5800 5799 5798 5797 5795 5794 5793 5792 5791 5790 5789 5787 5785 5783 5782 5780 5778 5777 5776 5774 5772 5770 5769 5768 5767 5767 5766
5796 5797 5797 5798 5797 5797 5797 5797 5797 5797 5796 5795 5795 5794 5792 5791 5790 5789 5788 5786 5785 5784 5783 5782 5780 5779 5778 5777 5775 5774 5772 5770 5768 5767 5766 5764 5763 5761 5760 5759 5757 5756 5756
5786 5786 5787 5787 5788 5788 5787 5787 5787 5787 5786 5786 5785 5784 5783 5781 5780 5778 5777 5777 5776 5775 5773 5772 5771 5769 5768 5767 5765 5764 5762 5761 5759 5757 5755 5754 5752 5751 5750 5748 5747 5746 5746
5775 5776 5776 5777 5777 5777 5777 5778 5778 5777 5777 5776 5775 5774 5773 5772 5771 5769 5768 5767 5767 5766 5765 5764 5762 5760 5759 5757 5756 5754 5753 5751 5749 5748 5746 5744 5742 5741 5740 5738 5737 5736 5735
5764 5765 5766 5766 5767 5767 5768 5768 5768 5767 5767 5767 5766 5765 5764 5762 5761 5760 5759 5758 5758 5757 5755 5754 5752 5750 5749 5748 5746 5745 5744 5742 5740 5738 5736 5734 5732 5730 5729 5728 5727 5725 5724
Wind_Speed
8 8 8 7 8 8 8 8 8 8 8 8 8 9 8 7 6 5 5 5 3 2 1 1 2 2 3 3 5 6 6 6 6 7 7 8 9 9 9 9 10 10 11
8 7 7 6 7 7 7 7 7 8 7 7 7 8 8 8 7 6 6 6 4 3 3 3 3 4 4 4 5 6 6 6 7 7 8 8 9 9 10 10 10 10 10
7 6 6 6 6 6 6 6 7 7 6 6 6 7 7 7 7 7 6 6 5 5 4 4 4 4 4 4 5 6 6 6 7 7 7 7 8 9 10 10 10 10 11
8 7 7 6 6 5 5 5 6 6 6 6 6 6 6 6 7 7 7 6 6 6 6 6 6 6 6 6 6 5 6 7 7 8 8 8 8 9 9 10 10 11 11
10 9 8 7 6 6 5 5 5 5 5 5 6 6 6 7 7 7 7 7 7 7 7 7 7 6 7 7 7 7 7 8 8 9 9 10 10 10 10 10 11 12 12
11 10 8 9 8 7 6 6 5 5 5 6 6 7 7 7 8 8 8 8 8 8 8 8 8 8 8 7 8 8 8 9 10 10 10 11 11 12 12 11 11 12 12
12 11 11 11 9 8 8 8 7 6 7 7 7 8 8 8 9 9 9 9 9 9 9 10 9 9 9 9 9 9 9 10 10 11 11 12 12 12 12 12 13 13 14
12 12 11 10 10 9 9 9 8 8 8 9 9 9 9 9 9 10 10 10 10 10 10 10 10 10 11 10 10 10 10 11 12 12 12 12 13 13 13 14 14 15 15
13 11 10 11 11 11 11 11 10 11 11 10 11 11 11 11 11 11 11 11 11 11 11 11 12 12 11 11 11 12 12 13 13 13 13 13 13 14 15 15 16 16 16
13 12 12 13 13 13 13 12 13 13 13 13 12 13 13 13 13 13 13 13 13 13 13 12 12 13 13 13 13 13 13 14 14 14 14 14 14 14 15 16 16 17 17
16 15 16 16 16 15 15 15 15 15 15 15 15 15 15 15 15 15 15 15 15 14 14 14 14 14 15 14 14 14 14 15 15 15 16 16 16 17 17 17 17 18 18
17 17 17 17 17 17 18 18 17 17 17 18 18 18 18 17 17 17 17 17 16 16 16 16 16 16 15 15 15 15 16 16 16 17 18 18 19 19 19 19 19 19 20
20 19 18 19 19 19 20 20 20 19 19 20 20 20 20 20 19 19 19 19 18 18 18 18 17 18 17 17 16 16 17 17 18 19 19 20 21 21 22 21 21 21 21
23 22 21 21 21 21 21 22 22 21 21 21 22 22 22 22 22 22 22 22 21 20 20 20 19 19 19 19 18 19 19 19 20 21 20 21 22 23 23 23 23 23 23
26 24 23 23 23 23 23 23 23 23 23 23 23 24 24 24 25 25 25 24 24 23 23 22 21 21 21 21 21 21 22 22 22 22 22 22 23 23 24 23 24 24 24
27 25 26 26 25 25 25 24 24 24 24 25 25 25 25 25 26 26 26 26 25 25 25 24 24 24 24 24 24 24 24 24 25 25 25 26 26 26 26 25 25 25 24
28 28 28 29 28 27 26 26 25 26 26 26 27 27 26 26 26 26 27 27 27 27 27 27 27 27 27 27 26 26 26 27 28 28 28 28 28 28 28 27 27 26 26
33 32 31 30 30 29 28 27 28 28 28 28 28 28 28 28 28 28 29 29 29 29 29 29 29 29 29 28 28 28 28 28 29 30 30 30 30 30 30 29 28 28 27
33 33 31 31 30 30 30 30 30 29 29 29 30 30 30 30 30 30 30 30 30 31 31 31 31 30 30 31 31 31 31 31 31 31 31 31 32 32 32 31 30 30 29
32 33 33 31 32 32 32 31 30 30 30 31 31 31 31 31 31 31 31 31 31 31 31 32 32 32 32 32 32 33 33 33 33 32 32 33 33 33 32 31 30 30 30
32 32 33 32 32 32 32 32 32 31 31 32 32 32 32 32 32 32 32 33 33 33 33 33 33 33 33 34 34 33 34 34 34 34 33 33 33 32 32 32 31 30 29
33 33 33 33 32 32 32 32 32 31 32 32 33 33 33 33 33 33 33 34 34 33 33 34 34 34 34 34 35 34 34 35 35 34 33 33 32 32 32 32 31 30 30
35 34 34 33 32 32 32 32 31 32 32 33 33 33 33 33 33 33 34 34 33 33 33 34 34 33 33 34 34 33 34 35 34 34 34 33 32 32 32 31 31 31 31
36 36 36 35 34 33 33 32 32 32 32 33 33 33 32 33 33 32 32 32 32 32 32 32 32 32 32 32 33 33 33 33 33 34 33 33 33 34 33 31 31 31 32
35 36 36 35 34 34 33 32 32 32 32 32 32 32 32 32 31 30 30 30 30 31 31 32 33 32 32 31 32 31 31 32 32 32 32 32 32 33 33 33 33 33 34
35 34 34 34 33 32 32 31 32 31 31 31 31 31 31 31 31 30 30 30 31 31 31 31 31 31 31 31 31 31 31 31 31 32 31 32 32 32 33 33 33 34 34
Wind_Direction
11 14 17 25 27 28 29 33 34 35 35 35 37 37 36 39 39 34 35 32 29 30 23 330 278 280 279 265 255 255 256 255 257 265 267 266 265 265 267 267 268 266 263
0 4 3 10 18 22 23 24 26 29 30 29 29 30 30 28 26 27 24 20 13 4 357 338 315 302 297 287 280 270 264 260 258 263 269 270 270 270 268 266 267 268 262
345 349 345 349 357 5 12 16 16 20 23 22 25 24 19 19 20 19 15 10 5 358 351 341 334 316 305 297 292 282 277 272 268 268 271 273 274 271 271 271 269 270 270
324 324 322 320 336 338 347 359 4 7 12 16 14 13 11 10 11 9 4 360 352 344 334 329 323 312 302 296 293 288 278 270 270 271 272 274 276 277 275 273 271 271 269
311 309 304 301 312 318 323 333 346 352 356 3 5 1 358 354 353 355 354 350 344 337 332 322 314 306 301 299 296 286 278 270 270 272 270 271 274 277 277 274 273 271 269
294 295 291 293 296 299 305 317 318 328 336 342 345 347 345 344 343 341 341 340 337 334 329 320 312 305 298 296 292 288 279 271 269 271 271 272 273 275 274 269 271 272 272
283 280 287 286 286 288 288 295 302 312 320 321 322 327 328 329 332 331 328 330 328 326 325 320 310 301 297 294 287 286 282 277 276 277 277 275 275 275 274 267 268 271 273
277 273 278 280 283 285 284 288 296 298 304 307 309 313 316 319 322 325 323 323 323 317 315 313 307 299 296 296 290 286 286 283 283 281 281 279 277 276 274 270 269 270 273
267 266 268 270 276 279 282 288 292 293 296 300 304 304 306 311 313 313 313 312 312 311 309 306 302 299 296 296 294 290 290 287 283 282 281 280 279 276 275 275 273 273 273
268 265 264 269 270 272 277 281 287 292 295 296 298 298 300 303 304 305 305 306 306 304 303 302 300 293 293 291 290 288 288 287 282 280 280 280 280 279 278 277 277 276 274
270 268 270 267 269 272 277 280 283 287 290 292 292 293 293 295 297 298 298 299 300 300 298 295 294 292 289 288 288 286 288 288 285 282 281 280 279 279 278 277 276 275 275
268 267 268 267 266 270 273 276 279 283 286 287 287 289 289 290 292 293 294 296 295 294 295 293 291 290 289 288 287 286 287 287 285 285 281 279 280 280 279 278 278 278 277
269 267 268 273 273 271 272 275 278 280 281 283 285 286 287 288 289 289 290 291 291 291 291 291 291 289 287 286 285 285 285 285 285 285 283 281 281 282 280 278 276 277 277
268 268 271 272 274 272 272 275 277 278 280 282 283 284 284 285 285 286 286 287 288 289 289 290 291 289 288 288 285 285 285 283 284 284 283 282 283 282 280 278 278 277 276
268 267 270 272 273 271 269 272 274 276 279 281 283 283 283 283 282 283 284 284 286 286 286 287 287 288 287 286 285 283 283 283 285 286 285 284 283 282 281 280 280 278 276
269 268 268 270 271 270 268 270 271 273 277 280 282 282 282 283 283 282 282 283 285 285 285 286 285 285 285 285 284 283 284 283 285 285 285 285 284 284 284 284 283 280 278
264 266 269 269 271 270 268 269 271 274 277 279 281 281 282 283 283 281 281 282 282 283 284 284 284 284 283 283 282 282 283 284 284 283 283 284 283 283 283 283 283 282 280
263 265 266 266 268 268 267 268 271 274 276 278 280 280 279 279 280 280 279 280 280 281 281 281 280 281 281 282 281 281 282 282 283 283 282 283 282 280 280 280 281 281 281
263 264 265 266 267 268 268 270 272 274 276 277 278 279 278 277 278 278 278 278 278 279 278 279 279 279 279 279 279 280 282 282 283 283 282 281 281 280 279 278 279 279 279
262 264 264 265 267 268 269 270 271 273 275 277 279 279 278 277 277 278 278 277 278 278 278 278 278 278 279 280 280 281 282 283 283 283 282 281 281 280 279 278 278 279 279
263 263 265 267 270 270 269 271 271 273 274 276 278 279 278 277 277 278 278 277 277 277 277 277 277 277 278 279 279 279 281 282 283 284 283 282 279 279 279 279 278 278 279
262 264 267 269 270 270 270 271 273 273 273 275 277 277 276 275 276 277 278 278 277 276 277 276 276 277 277 279 280 280 282 282 282 281 282 283 279 279 279 279 278 277 277
263 266 269 270 269 269 270 272 273 273 274 275 276 276 275 274 275 277 276 277 277 278 277 277 276 276 278 281 282 284 284 285 284 284 284 282 280 279 279 278 278 276 276
262 266 268 269 269 269 270 272 272 272 273 274 275 276 275 275 276 276 277 278 279 278 278 280 278 279 281 283 283 284 285 286 286 288 286 283 281 281 279 277 276 275 274
262 265 267 268 269 270 269 269 270 271 272 274 274 275 276 277 277 278 277 279 280 279 280 281 281 282 282 282 283 283 285 287 287 289 288 285 283 282 281 280 278 276 274
260 262 263 265 267 268 267 268 270 271 272 274 276 277 278 278 278 277 277 279 281 281 282 283 283 284 282 282 282 283 284 285 287 289 290 289 285 283 281 280 279 277 277